Location: Brantley
(31.5822°N, 86.2569°W)
Time: 23:01:52
(UTC+00:00)

A-11 Canister half - Pass Details

Date: 16 February 2026
Orbit: 1525 x 1683 km, 47.3° (Epoch: 10 March)

Event Time Altitude Azimuth Distance (km) Brightness Sun altitude
Rises 04:14:43 0° 308° (NW) 4,676 12.0 -59.2°
Reaches altitude 10° 04:17:50 10° 313° (NW) 3,698 11.3 -59.8°
Enters shadow 04:19:00 15° 315° (NW) 3,344 11.0 -60.0°
